[[{"header":{"parameterUnit":"m.s-1","parameterCategory":2,"la1":30.2991,"la2":30.254,"lo1":-89.0895,"lo2":-89.0444,"dy":0.0017,"dx":0.0017,"nx":28,"ny":28,"refTime":"2024-06-10T09:00:00:Z","depth":"0","parameterNumber":2,"parameterNumberName":"U-component_of_CURRENTS"},"data":[0,0,0,0,0,0,0,0,0,0,0,0,0,0,0,0,0,0,0,0,0,0,0,0,0,0,0,0,0,0,0,0,0,0,0,0,0,0,0,0,0,0,0,0,0,0,0,0,0,0,0,0,0,0,0,0,0,0,-0.2609,-0.2609,0,-0.2572,-0.2571,-0.2571,-0.2456,-0.2454,-0.2451,-0.2449,-0.2374,-0.2374,-0.2374,0,0,0,0,0,0,0,0,0,0,0,0,0,-0.2504,-0.2507,-0.2609,-0.2609,-0.2608,-0.2572,-0.2571,-0.257,-0.2457,-0.2454,-0.2451,-0.2448,-0.2374,-0.2374,-0.2374,0,0,0,0,0,0,0,0,0,0,0,0,0,-0.2516,-0.2508,-0.2609,-0.2547,-0.2542,-0.2572,-0.2571,-0.257,-0.2457,-0.2454,-0.245,-0.2446,-0.2373,-0.2374,-0.2374,-0.2451,0,0,-0.2376,-0.2376,0,0,0,0,0,0,0,0,-0.2516,-0.252,-0.2557,-0.2552,-0.2545,-0.2515,-0.2506,-0.2529,-0.2458,-0.2489,-0.2449,-0.2445,-0.2421,-0.2417,-0.2418,-0.2448,-0.2445,-0.2376,-0.2376,-0.2376,-0.2376,0,0,0,0,0,0,0,-0.2515,-0.2521,-0.2594,-0.2557,-0.255,-0.2495,-0.2493,-0.251,-0.2475,-0.2486,-0.2478,-0.2475,-0.2416,-0.2418,-0.2415,-0.2443,-0.2376,-0.2376,-0.2376,-0.2377,-0.2465,-0.2467,0,0,0,0,0,0,-0.253,-0.2521,-0.2595,-0.2593,-0.2522,-0.25,-0.2498,-0.2528,-0.2475,-0.2464,-0.2479,-0.247,-0.2419,-0.2415,-0.2412,-0.2437,-0.2376,-0.2377,-0.2377,-0.2463,-0.2465,-0.2468,0,0,0,0,0,0,-0.2529,-0.2539,-0.2596,-0.2553,-0.2557,-0.2506,-0.2541,-0.2529,-0.2506,-0.247,-0.2457,-0.2463,-0.2416,-0.2411,-0.2412,-0.2435,-0.2377,-0.2377,-0.246,-0.2464,-0.2467,-0.2526,0,0,0,0,0,0,-0.2526,-0.2539,-0.2565,-0.2556,-0.256,-0.2604,-0.2544,-0.2531,-0.2512,-0.25,-0.2455,-0.2444,-0.2413,-0.2412,-0.2413,-0.2434,-0.2378,-0.2458,-0.2462,-0.2466,-0.2522,-0.2531,-0.2539,0,0,0,0,0,-0.2523,-0.255,-0.2568,-0.2576,-0.26,-0.2605,-0.2602,-0.2551,-0.2515,-0.2515,-0.2483,-0.2445,-0.2437,-0.2414,-0.2415,-0.2437,-0.2456,-0.2461,-0.2465,-0.2518,-0.2529,-0.2539,0,0,0,0,0,0,-0.2474,-0.2542,-0.2559,-0.2596,-0.2606,-0.2585,-0.2571,-0.2558,-0.2536,-0.2513,-0.2475,-0.2465,-0.2475,-0.2461,-0.2437,-0.2477,-0.2441,-0.2446,-0.2481,-0.2491,-0.25,-0.2485,-0.2378,0,0,0,0,0,-0.2498,-0.2556,-0.2587,-0.2612,-0.2619,-0.2607,-0.2601,-0.258,-0.2561,-0.2544,-0.252,-0.2502,-0.2506,-0.2497,-0.2497,-0.2526,-0.2492,-0.2542,-0.2551,-0.2558,-0.255,-0.2534,-0.2539,-0.2483,-0.2483,-0.2483,0,0,-0.2483,-0.2525,-0.2555,-0.261,-0.2605,-0.2623,-0.2591,-0.2583,-0.2593,-0.2546,-0.254,-0.2534,-0.2523,-0.2543,-0.2547,-0.2524,-0.2558,-0.2564,-0.257,-0.2557,-0.2539,-0.2544,-0.2548,-0.2486,-0.2486,-0.2485,0,0,-0.2461,-0.2524,-0.2558,-0.2584,-0.2605,-0.2618,-0.2621,-0.2621,-0.2611,-0.263,-0.2598,-0.2599,-0.2606,-0.2596,-0.2595,-0.266,-0.2609,-0.2672,-0.2697,-0.2683,-0.2686,-0.2689,-0.2652,-0.265,-0.2671,-0.2671,-0.2672,0,-0.2419,-0.25,-0.2556,-0.2581,-0.2604,-0.2619,-0.264,-0.2649,-0.2648,-0.2659,-0.2626,-0.2641,-0.2627,-0.2653,-0.267,-0.2675,-0.2654,-0.2654,-0.2691,-0.2693,-0.2694,-0.2655,-0.2653,-0.2675,-0.2675,-0.2674,-0.2674,0,-0.2429,-0.2491,-0.2498,-0.2572,-0.2605,-0.2622,-0.2664,-0.269,-0.2693,-0.27,-0.2722,-0.2706,-0.2707,-0.2718,-0.271,-0.2735,-0.2712,-0.2705,-0.2656,-0.2703,-0.266,-0.2656,-0.268,-0.2679,-0.2678,-0.2677,0,0,-0.232,-0.248,-0.2477,-0.2539,-0.2612,-0.2639,-0.2687,-0.2743,-0.276,-0.2768,-0.2783,-0.2798,-0.2783,-0.2782,-0.2777,-0.2765,-0.276,-0.2745,-0.2743,-0.2692,-0.2714,-0.241,-0.2377,-0.2763,-0.2763,-0.2763,-0.2678,0,-0.2295,-0.2387,-0.2468,-0.2541,-0.26,-0.2668,-0.2713,-0.2767,-0.2793,-0.2814,-0.2815,-0.2818,-0.2811,-0.2806,-0.2802,-0.2785,-0.2754,-0.2782,-0.2689,-0.2685,-0.2396,-0.2363,-0.2208,-0.2093,-0.2674,-0.2673,-0.2673,0,-0.226,-0.2355,-0.2444,-0.2591,-0.2612,-0.2651,-0.2751,-0.2792,-0.2842,-0.2855,-0.2868,-0.2859,-0.2869,-0.2833,-0.2806,-0.2829,-0.277,-0.2736,-0.2732,-0.2417,-0.2372,-0.2143,-0.2065,-0.2119,-0.2667,-0.2667,-0.2668,0,-0.2193,-0.2322,-0.2417,-0.2463,-0.262,-0.2662,-0.2723,-0.2794,-0.2829,-0.287,-0.2878,-0.2891,-0.2878,-0.2843,-0.2751,-0.2799,-0.2669,-0.2728,-0.2391,-0.237,-0.2196,-0.2156,-0.2136,-0.2663,-0.2663,-0.2663,-0.2663,0,-0.2157,-0.222,-0.2396,-0.2451,-0.2529,-0.264,-0.2692,-0.2752,-0.2815,-0.2847,-0.2882,-0.2885,-0.2878,-0.2801,-0.2745,-0.2508,-0.2656,-0.2358,-0.231,-0.2209,-0.2173,-0.2176,-0.2251,-0.266,-0.2661,-0.2661,-0.2662,0,-0.2076,-0.219,-0.2305,-0.2476,-0.2507,-0.2562,-0.2664,-0.2705,-0.2775,-0.2814,-0.2825,-0.2874,-0.2753,-0.2652,-0.2557,-0.2443,-0.2217,-0.2151,-0.1998,-0.1927,-0.1643,-0.1726,-0.1591,-0.155,-0.1805,-0.1797,-0.179,0,-0.2056,-0.2114,-0.2289,-0.2338,-0.2411,-0.2496,-0.2544,-0.2654,-0.2711,-0.2799,-0.2819,-0.2716,-0.2584,-0.2279,-0.2037,-0.1767,-0.1882,-0.1492,-0.1525,-0.1549,-0.1614,-0.1718,-0.1708,-0.1362,-0.1352,-0.1344,-0.1337,0,-0.202,-0.2077,-0.218,-0.2273,-0.234,-0.2409,-0.2498,-0.253,-0.2663,-0.2653,-0.2594,-0.2474,-0.216,-0.1735,-0.1362,-0.1276,-0.1458,-0.1305,-0.1415,-0.1285,-0.1323,-0.1285,-0.1512,-0.1265,-0.1272,-0.1277,-0.1281,-0.1284,-0.1967,-0.201,-0.2123,-0.2195,-0.226,-0.2297,-0.2281,-0.2364,-0.2356,-0.2256,-0.2274,-0.1896,-0.1432,-0.085,-0.0858,-0.068,-0.0849,-0.0663,-0.0773,-0.0887,-0.0789,-0.0782,-0.0408,-0.041,-0.0412,-0.0414,-0.0415,0,-0.1899,-0.1949,-0.2026,-0.21,-0.2105,-0.2171,-0.2223,-0.2133,-0.2026,-0.1835,-0.1605,-0.0868,-0.0491,-0.0303,-0.005,-0.0136,-0.0341,-0.0261,-0.0505,-0.053,-0.0589,-0.0507,-0.0032,-0.0032,-0.0032,-0.0032,-0.0032,-0.0032,-0.1859,-0.1898,-0.1941,-0.192,-0.194,-0.1832,-0.1804,-0.1657,-0.1459,-0.0923,-0.0446,-0.0137,0.0138,0.0199,0.0048,-0.0059,-0.0272,-0.0213,-0.0366,-0.056,-0.0614,-0.0665,-0.0609,-0.0163,-0.0163,-0.0282,-0.0283,-0.0284]},{"header":{"parameterUnit":"m.s-1","parameterCategory":2,"la1":30.2991,"la2":30.254,"lo1":-89.0895,"lo2":-89.0444,"dy":0.0017,"dx":0.0017,"nx":28,"ny":28,"refTime":"2024-06-10T09:00:00:Z","depth":"0","parameterNumber":3,"parameterNumberName":"V-component_of_CURRENTS"},"data":[0,0,0,0,0,0,0,0,0,0,0,0,0,0,0,0,0,0,0,0,0,0,0,0,0,0,0,0,0,0,0,0,0,0,0,0,0,0,0,0,0,0,0,0,0,0,0,0,0,0,0,0,0,0,0,0,0,0,-0.1172,-0.1172,0,-0.1169,-0.1168,-0.1168,-0.1074,-0.1071,-0.1069,-0.1067,-0.0892,-0.0889,-0.0887,0,0,0,0,0,0,0,0,0,0,0,0,0,-0.0953,-0.0959,-0.1172,-0.1172,-0.1172,-0.1169,-0.1168,-0.1168,-0.1074,-0.1071,-0.1068,-0.1066,-0.0893,-0.089,-0.0887,0,0,0,0,0,0,0,0,0,0,0,0,0,-0.1009,-0.0961,-0.1172,-0.1125,-0.1121,-0.1169,-0.1168,-0.1168,-0.1075,-0.1071,-0.1068,-0.1064,-0.0894,-0.089,-0.0886,-0.0934,0,0,-0.0875,-0.0873,0,0,0,0,0,0,0,0,-0.1006,-0.1017,-0.1132,-0.1129,-0.1124,-0.1119,-0.1027,-0.1082,-0.1076,-0.1091,-0.1067,-0.1063,-0.0955,-0.0946,-0.0954,-0.0926,-0.0918,-0.0875,-0.0872,-0.0871,-0.087,0,0,0,0,0,0,0,-0.1002,-0.1015,-0.1169,-0.1132,-0.1128,-0.1056,-0.1061,-0.1037,-0.1039,-0.109,-0.1083,-0.1086,-0.0951,-0.0958,-0.0949,-0.0916,-0.0875,-0.0871,-0.0869,-0.0868,-0.0862,-0.0864,0,0,0,0,0,0,-0.1018,-0.1014,-0.1169,-0.1169,-0.1056,-0.1063,-0.1069,-0.1123,-0.1043,-0.1029,-0.1089,-0.1081,-0.0966,-0.0953,-0.0942,-0.0974,-0.0871,-0.0867,-0.0865,-0.086,-0.0863,-0.0865,0,0,0,0,0,0,-0.1014,-0.1034,-0.117,-0.1087,-0.11,-0.1072,-0.1133,-0.1125,-0.1117,-0.1044,-0.1026,-0.1086,-0.0963,-0.0947,-0.0919,-0.0966,-0.0866,-0.0862,-0.0858,-0.0861,-0.0864,-0.1049,0,0,0,0,0,0,-0.1009,-0.1034,-0.108,-0.1092,-0.1106,-0.122,-0.1136,-0.1128,-0.1125,-0.1115,-0.1037,-0.1018,-0.0959,-0.0925,-0.0915,-0.0959,-0.0859,-0.0855,-0.0859,-0.0863,-0.1041,-0.1059,-0.1074,0,0,0,0,0,-0.1002,-0.1092,-0.1084,-0.1101,-0.1172,-0.1223,-0.1225,-0.1187,-0.1129,-0.1159,-0.1086,-0.1019,-0.0942,-0.0925,-0.0912,-0.0956,-0.0853,-0.0858,-0.0863,-0.1033,-0.1055,-0.1073,0,0,0,0,0,0,-0.0991,-0.1091,-0.1082,-0.1188,-0.1208,-0.1207,-0.1238,-0.1198,-0.117,-0.1146,-0.1049,-0.1029,-0.1023,-0.0966,-0.0949,-0.0965,-0.0887,-0.0889,-0.102,-0.104,-0.1056,-0.1092,-0.0856,0,0,0,0,0,-0.1022,-0.1142,-0.1168,-0.1254,-0.1271,-0.125,-0.1262,-0.124,-0.1215,-0.1199,-0.1138,-0.1075,-0.1042,-0.1019,-0.0984,-0.0998,-0.0916,-0.1016,-0.1033,-0.1048,-0.1068,-0.1019,-0.1033,-0.088,-0.088,-0.088,0,0,-0.1047,-0.1111,-0.1178,-0.1264,-0.1275,-0.1339,-0.125,-0.129,-0.1327,-0.1185,-0.1206,-0.1133,-0.1058,-0.1073,-0.1065,-0.1025,-0.1036,-0.1053,-0.1067,-0.108,-0.1025,-0.104,-0.1053,-0.0884,-0.0883,-0.0883,0,0,-0.1173,-0.1208,-0.1352,-0.1384,-0.1427,-0.1408,-0.1421,-0.1421,-0.1405,-0.1421,-0.1322,-0.1277,-0.1234,-0.1192,-0.1163,-0.1251,-0.1127,-0.1235,-0.135,-0.1302,-0.1314,-0.1324,-0.1191,-0.1188,-0.1243,-0.1244,-0.1244,0,-0.1169,-0.1367,-0.1386,-0.1503,-0.1529,-0.1446,-0.1542,-0.1536,-0.1518,-0.1496,-0.1449,-0.1359,-0.13,-0.1293,-0.1332,-0.1292,-0.1213,-0.1282,-0.1325,-0.1333,-0.134,-0.1202,-0.1196,-0.1253,-0.1252,-0.1251,-0.125,0,-0.1422,-0.1533,-0.1605,-0.1735,-0.1759,-0.1825,-0.1805,-0.1797,-0.1735,-0.1699,-0.1667,-0.1584,-0.1513,-0.1503,-0.1453,-0.1474,-0.1381,-0.1353,-0.1279,-0.1367,-0.1214,-0.1205,-0.1267,-0.1263,-0.1261,-0.1258,0,0,-0.1498,-0.1738,-0.1759,-0.1824,-0.1877,-0.1908,-0.1958,-0.196,-0.1938,-0.1907,-0.1888,-0.1853,-0.175,-0.1713,-0.1626,-0.1605,-0.1578,-0.1523,-0.1515,-0.1397,-0.141,-0.1199,-0.1166,-0.1563,-0.1564,-0.1565,-0.1266,0,-0.166,-0.1928,-0.1995,-0.2146,-0.224,-0.217,-0.2204,-0.2175,-0.2103,-0.2056,-0.196,-0.1909,-0.1846,-0.1794,-0.1773,-0.1628,-0.157,-0.1658,-0.1337,-0.1326,-0.1135,-0.1156,-0.1023,-0.0736,-0.1256,-0.1254,-0.1253,0,-0.188,-0.2016,-0.2244,-0.2321,-0.2347,-0.2398,-0.2354,-0.2379,-0.2284,-0.2224,-0.2148,-0.2035,-0.1978,-0.1915,-0.1728,-0.1785,-0.1625,-0.1512,-0.1497,-0.1236,-0.11,-0.0739,-0.0697,-0.0595,-0.1236,-0.1238,-0.1239,0,-0.1944,-0.2157,-0.2333,-0.2378,-0.247,-0.2496,-0.2491,-0.242,-0.2396,-0.2312,-0.2247,-0.215,-0.2048,-0.1921,-0.1658,-0.1705,-0.141,-0.1426,-0.1067,-0.1046,-0.0836,-0.0796,-0.0666,-0.1295,-0.1296,-0.1297,-0.1297,0,-0.2091,-0.2207,-0.237,-0.2462,-0.2545,-0.257,-0.259,-0.2553,-0.2484,-0.2409,-0.2326,-0.2208,-0.2054,-0.1839,-0.1665,-0.1292,-0.1389,-0.1075,-0.0971,-0.0887,-0.0857,-0.0679,-0.0684,-0.1285,-0.1288,-0.129,-0.1292,0,-0.2153,-0.2295,-0.2457,-0.2582,-0.2602,-0.2648,-0.265,-0.2634,-0.2569,-0.2466,-0.244,-0.2239,-0.1936,-0.1699,-0.1402,-0.1224,-0.0807,-0.0776,-0.0637,-0.0524,-0.0145,-0.0166,0.0105,0.0235,-0.0374,-0.0368,-0.0362,0,-0.2211,-0.2341,-0.2521,-0.2581,-0.2642,-0.2699,-0.2708,-0.2677,-0.2633,-0.2432,-0.2367,-0.2066,-0.1741,-0.1209,-0.0878,-0.0469,-0.0451,-0.0127,-0.0223,-0.009,-0.0038,-0.0083,-0.0001,0.0013,0.0021,0.0028,0.0033,0,-0.2268,-0.2359,-0.2478,-0.2632,-0.269,-0.2727,-0.273,-0.269,-0.2585,-0.2402,-0.2071,-0.1795,-0.1271,-0.0721,-0.0233,-0.0033,-0.0025,0.0029,0.0098,0.0222,0.0246,0.0413,-0.0171,0.0094,0.0088,0.0083,0.008,0.0078,-0.2235,-0.2333,-0.2512,-0.2635,-0.2697,-0.2692,-0.2609,-0.2519,-0.2319,-0.1871,-0.1735,-0.1097,-0.0612,0.0118,0.0293,0.0679,0.0528,0.0767,0.0729,0.0669,0.078,0.0378,0.0787,0.0786,0.0784,0.0782,0.0781,0,-0.2158,-0.2328,-0.2484,-0.2606,-0.2633,-0.2679,-0.2559,-0.2336,-0.1951,-0.147,-0.0986,-0.0117,0.0426,0.0771,0.123,0.1365,0.1299,0.1376,0.1275,0.1324,0.0939,0.0939,0.1481,0.1481,0.1481,0.148,0.148,0.148,-0.2112,-0.2283,-0.2424,-0.2507,-0.2547,-0.2377,-0.223,-0.1847,-0.1417,-0.0484,0.0219,0.0674,0.1082,0.1418,0.1737,0.1766,0.1802,0.1802,0.1808,0.1447,0.1383,0.1321,0.1319,0.1931,0.1932,0.2224,0.2227,0.2229]}],[{"header":{"parameterUnit":"m.s-1","parameterCategory":2,"la1":30.2991,"la2":30.254,"lo1":-89.0895,"lo2":-89.0444,"dy":0.0017,"dx":0.0017,"nx":28,"ny":28,"refTime":"2024-06-10T09:00:00:Z","depth":"2","parameterNumber":2,"parameterNumberName":"U-component_of_CURRENTS"},"data":[0,0,0,0,0,0,0,0,0,0,0,0,0,0,0,0,0,0,0,0,0,0,0,0,0,0,0,0,0,0,0,0,0,0,0,0,0,0,0,0,0,0,0,0,0,0,0,0,0,0,0,0,0,0,0,0,0,0,-0.1868,-0.1868,0,-0.1851,-0.185,-0.185,-0.1904,-0.1906,-0.1908,-0.191,-0.2076,-0.2079,-0.2082,0,0,0,0,0,0,0,0,0,0,0,0,0,-0.1885,-0.1884,-0.1868,-0.1868,-0.1868,-0.1851,-0.185,-0.185,-0.1904,-0.1906,-0.1909,-0.1911,-0.2076,-0.2079,-0.2082,0,0,0,0,0,0,0,0,0,0,0,0,0,-0.1871,-0.1884,-0.1868,-0.1895,-0.1897,-0.1851,-0.185,-0.185,-0.1904,-0.1906,-0.1909,-0.1912,-0.2074,-0.2078,-0.2082,-0.205,0,0,-0.2095,-0.2096,0,0,0,0,0,0,0,0,-0.1872,-0.187,-0.1891,-0.1893,-0.1896,-0.1885,-0.1917,-0.1927,-0.1903,-0.1899,-0.191,-0.1913,-0.2029,-0.2037,-0.2021,-0.2058,-0.2065,-0.2095,-0.2097,-0.2099,-0.21,0,0,0,0,0,0,0,-0.1873,-0.1871,-0.1859,-0.1891,-0.1894,-0.1886,-0.1888,-0.1918,-0.195,-0.1899,-0.1904,-0.1905,-0.2032,-0.2017,-0.2026,-0.2068,-0.2095,-0.2098,-0.2101,-0.2102,-0.2066,-0.2063,0,0,0,0,0,0,-0.188,-0.1872,-0.1859,-0.1859,-0.1893,-0.1884,-0.1886,-0.1883,-0.1945,-0.1957,-0.1902,-0.1907,-0.2009,-0.2021,-0.2032,-0.2064,-0.2099,-0.2103,-0.2105,-0.207,-0.2066,-0.2062,0,0,0,0,0,0,-0.188,-0.1879,-0.186,-0.1867,-0.1865,-0.1882,-0.1878,-0.1882,-0.1892,-0.1946,-0.1961,-0.1913,-0.2011,-0.2027,-0.2035,-0.2069,-0.2105,-0.2108,-0.2074,-0.2068,-0.2064,-0.2086,0,0,0,0,0,0,-0.1881,-0.1879,-0.1877,-0.1867,-0.1865,-0.1851,-0.1876,-0.1879,-0.1888,-0.1895,-0.196,-0.1976,-0.2015,-0.2028,-0.2039,-0.2075,-0.2111,-0.2078,-0.2071,-0.2065,-0.209,-0.2083,-0.2077,0,0,0,0,0,-0.1881,-0.1873,-0.1877,-0.1876,-0.1863,-0.1851,-0.1849,-0.1868,-0.1886,-0.1888,-0.1899,-0.1976,-0.1996,-0.2028,-0.2042,-0.2081,-0.2081,-0.2073,-0.2066,-0.2093,-0.2084,-0.2077,0,0,0,0,0,0,-0.189,-0.1877,-0.1882,-0.1874,-0.1871,-0.1862,-0.186,-0.1869,-0.1874,-0.1884,-0.1936,-0.195,-0.1967,-0.1987,-0.2021,-0.2035,-0.205,-0.2045,-0.2066,-0.2058,-0.2052,-0.2126,-0.2115,0,0,0,0,0,-0.1885,-0.187,-0.1867,-0.1859,-0.1858,-0.1857,-0.1854,-0.1866,-0.1868,-0.1874,-0.191,-0.1928,-0.1936,-0.197,-0.1973,-0.1993,-0.2023,-0.2014,-0.2008,-0.2003,-0.2061,-0.2162,-0.2175,-0.2037,-0.2037,-0.2037,0,0,-0.1884,-0.1876,-0.1868,-0.1859,-0.1854,-0.1858,-0.1863,-0.186,-0.1877,-0.1892,-0.1917,-0.1908,-0.1923,-0.1933,-0.1946,-0.1972,-0.2016,-0.1993,-0.1991,-0.2053,-0.2157,-0.2172,-0.2185,-0.2032,-0.2033,-0.2034,0,0,-0.1869,-0.1868,-0.1851,-0.1853,-0.185,-0.1854,-0.1859,-0.1854,-0.1871,-0.1869,-0.1874,-0.1877,-0.1898,-0.192,-0.1933,-0.1886,-0.1963,-0.1878,-0.1949,-0.2044,-0.2061,-0.2076,-0.1982,-0.1989,-0.1898,-0.1898,-0.1898,0,-0.1872,-0.1857,-0.1846,-0.1843,-0.186,-0.1859,-0.1871,-0.1873,-0.1874,-0.1921,-0.1884,-0.193,-0.1902,-0.1979,-0.1922,-0.1889,-0.1904,-0.1995,-0.205,-0.2066,-0.2081,-0.1984,-0.1992,-0.1898,-0.1898,-0.1898,-0.1898,0,-0.1844,-0.185,-0.1843,-0.1846,-0.1861,-0.1864,-0.1884,-0.1904,-0.1918,-0.1955,-0.2019,-0.1969,-0.2037,-0.198,-0.1929,-0.2021,-0.1969,-0.2023,-0.2102,-0.2099,-0.199,-0.1998,-0.1899,-0.1899,-0.1899,-0.1899,0,0,-0.1806,-0.1823,-0.182,-0.1855,-0.1871,-0.1891,-0.1927,-0.1996,-0.2081,-0.2078,-0.2185,-0.2133,-0.2171,-0.2179,-0.2139,-0.2172,-0.2162,-0.2139,-0.2144,-0.2098,-0.2266,-0.2063,-0.205,-0.2275,-0.228,-0.2284,-0.2094,0,-0.1793,-0.1804,-0.1818,-0.1866,-0.189,-0.1937,-0.1996,-0.207,-0.2124,-0.2216,-0.2241,-0.2298,-0.2238,-0.225,-0.2295,-0.2187,-0.2211,-0.2201,-0.2232,-0.2229,-0.2101,-0.2066,-0.1919,-0.1732,-0.2102,-0.2104,-0.2105,0,-0.1756,-0.1783,-0.1814,-0.1931,-0.1951,-0.1987,-0.2135,-0.2181,-0.2321,-0.2389,-0.2513,-0.2526,-0.2536,-0.2485,-0.2459,-0.2471,-0.2392,-0.231,-0.2304,-0.215,-0.205,-0.1818,-0.1733,-0.2119,-0.2118,-0.2116,-0.2116,0,-0.1738,-0.1793,-0.1832,-0.1856,-0.1967,-0.2026,-0.2093,-0.2241,-0.2318,-0.2494,-0.2537,-0.2682,-0.2623,-0.2678,-0.2445,-0.2499,-0.236,-0.2428,-0.2185,-0.2161,-0.206,-0.2021,-0.2496,-0.2497,-0.2497,-0.2498,-0.2498,0,-0.1724,-0.1761,-0.1831,-0.1857,-0.1945,-0.2038,-0.216,-0.227,-0.2429,-0.2496,-0.2619,-0.2619,-0.2678,-0.2575,-0.2501,-0.2287,-0.2428,-0.2192,-0.2146,-0.2031,-0.1995,-0.2395,-0.2386,-0.249,-0.2492,-0.2493,-0.2495,0,-0.1682,-0.1723,-0.1766,-0.1882,-0.1924,-0.1975,-0.2134,-0.2232,-0.2382,-0.2445,-0.2483,-0.2537,-0.2395,-0.2359,-0.2283,-0.2235,-0.2126,-0.2032,-0.1772,-0.1703,-0.1849,-0.1842,-0.1818,-0.181,-0.1804,-0.1798,-0.1794,0,-0.1662,-0.1671,-0.1739,-0.1757,-0.1798,-0.1899,-0.1971,-0.218,-0.2259,-0.2328,-0.2317,-0.2225,-0.2115,-0.189,-0.1807,-0.1683,-0.1836,-0.1493,-0.1622,-0.1845,-0.1803,-0.1806,-0.1807,-0.1409,-0.1401,-0.1395,-0.1391,0,-0.1613,-0.1609,-0.1638,-0.1658,-0.1709,-0.1767,-0.187,-0.1951,-0.2123,-0.211,-0.2008,-0.1916,-0.1707,-0.1499,-0.1353,-0.1284,-0.1529,-0.1365,-0.1732,-0.1605,-0.1447,-0.1409,-0.1427,-0.1337,-0.1342,-0.1346,-0.1349,-0.1351,-0.1549,-0.1525,-0.1532,-0.1545,-0.1584,-0.1602,-0.1598,-0.1681,-0.1695,-0.1648,-0.1676,-0.1457,-0.1451,-0.1124,-0.1009,-0.0923,-0.1078,-0.1101,-0.1127,-0.1158,-0.1147,-0.0989,-0.0777,-0.0779,-0.0781,-0.0782,-0.0784,0,-0.1465,-0.144,-0.1433,-0.1407,-0.1368,-0.1439,-0.1494,-0.143,-0.1313,-0.1291,-0.117,-0.0994,-0.0852,-0.0827,-0.0616,-0.059,-0.0659,-0.0571,-0.071,-0.076,-0.0805,-0.0786,-0.0315,-0.0314,-0.0313,-0.0312,0,0,-0.1424,-0.1364,-0.1339,-0.12,-0.1172,-0.1047,-0.1034,-0.0931,-0.0882,-0.0706,-0.061,-0.0722,-0.0758,-0.0553,-0.0507,-0.0369,-0.0555,-0.0317,-0.0683,-0.089,-0.0934,-0.1085,-0.1105,0,0,0,0,0]},{"header":{"parameterUnit":"m.s-1","parameterCategory":2,"la1":30.2991,"la2":30.254,"lo1":-89.0895,"lo2":-89.0444,"dy":0.0017,"dx":0.0017,"nx":28,"ny":28,"refTime":"2024-06-10T09:00:00:Z","depth":"2","parameterNumber":3,"parameterNumberName":"V-component_of_CURRENTS"},"data":[0,0,0,0,0,0,0,0,0,0,0,0,0,0,0,0,0,0,0,0,0,0,0,0,0,0,0,0,0,0,0,0,0,0,0,0,0,0,0,0,0,0,0,0,0,0,0,0,0,0,0,0,0,0,0,0,0,0,-0.0198,-0.0197,0,-0.0105,-0.0104,-0.0103,-0.0045,-0.0045,-0.0045,-0.0044,0.0168,0.0173,0.0178,0,0,0,0,0,0,0,0,0,0,0,0,0,-0.0306,-0.0305,-0.0198,-0.0197,-0.0196,-0.0105,-0.0104,-0.0102,-0.0045,-0.0045,-0.0045,-0.0044,0.0166,0.0172,0.0179,0,0,0,0,0,0,0,0,0,0,0,0,0,-0.0241,-0.0304,-0.0198,-0.0156,-0.0151,-0.0105,-0.0104,-0.0102,-0.0045,-0.0045,-0.0044,-0.0044,0.0164,0.0172,0.0179,0.0219,0,0,0.0204,0.0207,0,0,0,0,0,0,0,0,-0.0245,-0.0237,-0.0164,-0.0159,-0.0154,-0.0086,-0.0064,0.0011,-0.0046,-0.0086,-0.0044,-0.0044,0.0094,0.0107,0.0122,0.0229,0.0238,0.0205,0.0209,0.0213,0.0215,0,0,0,0,0,0,0,-0.0249,-0.0241,-0.0162,-0.0162,-0.0156,-0.0135,-0.0125,-0.005,0.0002,-0.0082,-0.0078,-0.0067,0.0097,0.0114,0.0128,0.0241,0.0204,0.0212,0.0216,0.022,0.0339,0.0337,0,0,0,0,0,0,-0.0262,-0.0245,-0.0164,-0.0159,-0.0199,-0.0133,-0.0123,-0.0108,-0.0001,0.0015,-0.0068,-0.0065,0.01,0.0118,0.0135,0.0187,0.0213,0.022,0.0225,0.034,0.0338,0.0336,0,0,0,0,0,0,-0.0264,-0.0255,-0.0168,-0.02,-0.0187,-0.0132,-0.0117,-0.0107,-0.0089,0.0009,0.0027,-0.006,0.0101,0.0124,0.0174,0.0196,0.0224,0.0231,0.0342,0.034,0.0337,0.0291,0,0,0,0,0,0,-0.0268,-0.0257,-0.0257,-0.0201,-0.0186,-0.014,-0.0117,-0.0105,-0.0083,-0.0078,0.0022,0.0042,0.0103,0.0161,0.0182,0.0207,0.0238,0.0344,0.0341,0.0338,0.0295,0.0287,0.0281,0,0,0,0,0,-0.0272,-0.0268,-0.0258,-0.0248,-0.0186,-0.014,-0.013,-0.009,-0.0083,-0.0073,-0.0031,0.0039,0.0156,0.0166,0.0191,0.0219,0.0346,0.0342,0.0338,0.0298,0.0289,0.0281,0,0,0,0,0,0,-0.0318,-0.026,-0.0248,-0.0228,-0.019,-0.013,-0.0119,-0.0096,-0.0056,-0.0053,0.0027,0.0049,0.0099,0.0149,0.0157,0.0234,0.026,0.0261,0.0221,0.0213,0.0206,0.0209,0.0244,0,0,0,0,0,-0.033,-0.0309,-0.0256,-0.0242,-0.0225,-0.0177,-0.0157,-0.0128,-0.0084,-0.0066,-0.0003,0.0053,0.0103,0.0147,0.0198,0.0253,0.0323,0.0278,0.0271,0.0266,0.0278,0.0397,0.0405,0.0324,0.0324,0.0324,0,0,-0.0348,-0.0311,-0.0303,-0.0251,-0.0219,-0.0194,-0.0163,-0.0132,-0.0113,-0.0046,-0.0007,0.0037,0.0105,0.0153,0.0182,0.0204,0.0314,0.0261,0.0256,0.0272,0.0395,0.0403,0.0411,0.0322,0.0322,0.0323,0,0,-0.0357,-0.0338,-0.0318,-0.0291,-0.0243,-0.0212,-0.0207,-0.0151,-0.0128,-0.009,-0.005,-0.0004,0.0081,0.0134,0.017,0.0156,0.0266,0.0168,0.0163,0.0277,0.0287,0.0296,0.0362,0.0378,0.0177,0.0177,0.0177,0,-0.0381,-0.0352,-0.0308,-0.0284,-0.0276,-0.0224,-0.0215,-0.0178,-0.0116,-0.0094,-0.0085,0.0027,0.0076,0.0152,0.0128,0.015,0.0217,0.0196,0.0275,0.0285,0.0296,0.0362,0.038,0.0174,0.0175,0.0175,0.0175,0,-0.0365,-0.0357,-0.0346,-0.0302,-0.0285,-0.0271,-0.0223,-0.0196,-0.0171,-0.0124,-0.0056,0.0006,0.0084,0.0092,0.0108,0.0195,0.0217,0.0249,0.0308,0.0302,0.037,0.039,0.017,0.0171,0.0172,0.0173,0,0,-0.0383,-0.0345,-0.0343,-0.0356,-0.0304,-0.0298,-0.0261,-0.0213,-0.0164,-0.0114,-0.0035,0.0004,0.0058,0.0098,0.0143,0.0223,0.0321,0.0258,0.0265,0.0344,0.0555,0.0461,0.0473,0.0386,0.0389,0.0392,0.0563,0,-0.0389,-0.0381,-0.0349,-0.0365,-0.0372,-0.0332,-0.0307,-0.0257,-0.0172,-0.0073,-0.0001,0.0091,0.006,0.0119,0.0188,0.0302,0.0376,0.027,0.0531,0.0538,0.0474,0.0494,0.0455,0.0595,0.0583,0.0586,0.0589,0,-0.0376,-0.0386,-0.0403,-0.0426,-0.0423,-0.0421,-0.0367,-0.0325,-0.0171,-0.0095,0.0026,0.0126,0.0232,0.0231,0.0414,0.0355,0.0441,0.0518,0.0528,0.0477,0.0481,0.0604,0.0633,0.0623,0.062,0.0618,0.0615,0,-0.0426,-0.043,-0.0463,-0.0468,-0.0462,-0.0471,-0.046,-0.0339,-0.0268,-0.0068,0.0041,0.0187,0.029,0.0422,0.0525,0.0507,0.0743,0.0755,0.0748,0.0741,0.0776,0.0765,0.0907,0.0907,0.0906,0.0906,0.0905,0,-0.0452,-0.0482,-0.0498,-0.0523,-0.0576,-0.0539,-0.0516,-0.0444,-0.0264,-0.0153,0.0026,0.0167,0.035,0.0502,0.0586,0.0703,0.0794,0.0755,0.0792,0.0747,0.0732,0.0813,0.08,0.0912,0.0911,0.091,0.0909,0,-0.0496,-0.0495,-0.0549,-0.058,-0.0601,-0.0635,-0.0593,-0.0533,-0.0354,-0.0169,-0.0098,0.0179,0.0364,0.0521,0.0752,0.0769,0.0905,0.0925,0.0818,0.0837,0.0815,0.0797,0.0968,0.0966,0.0965,0.0964,0.0963,0,-0.0516,-0.0542,-0.0613,-0.0662,-0.0687,-0.0725,-0.0734,-0.0603,-0.0482,-0.0179,-0.0071,0.0179,0.0363,0.0634,0.0736,0.0887,0.0906,0.0902,0.0843,0.0809,0.0829,0.0813,0.0797,0.0876,0.0875,0.0874,0.0872,0,-0.0572,-0.0589,-0.0642,-0.0739,-0.079,-0.0823,-0.0792,-0.0709,-0.0503,-0.0315,-0.0035,0.0146,0.0418,0.0589,0.0743,0.0811,0.0867,0.0873,0.0956,0.0821,0.0725,0.0742,0.0731,0.0861,0.0862,0.0863,0.0863,0.0864,-0.0616,-0.0669,-0.0733,-0.0823,-0.0876,-0.0881,-0.0882,-0.0771,-0.0606,-0.0304,-0.0112,0.0146,0.0318,0.0531,0.0661,0.0774,0.0797,0.0811,0.0817,0.0823,0.0736,0.0638,0.0741,0.0741,0.0741,0.0742,0.0742,0,-0.0673,-0.0728,-0.0817,-0.0901,-0.0948,-0.0956,-0.0886,-0.0833,-0.0665,-0.0395,-0.0156,0.0037,0.0241,0.0448,0.0622,0.0708,0.0728,0.0709,0.074,0.075,0.0759,0.0669,0.0657,0.0657,0.0657,0.0657,0,0,-0.071,-0.08,-0.0842,-0.0943,-0.0986,-0.0997,-0.0956,-0.0846,-0.066,-0.0416,-0.0212,-0.0052,0.0235,0.0291,0.0448,0.0587,0.0632,0.0576,0.0633,0.0662,0.0669,0.0806,0.0676,0,0,0,0,0]}],[{"header":{"parameterUnit":"m.s-1","parameterCategory":2,"la1":30.2991,"la2":30.254,"lo1":-89.0895,"lo2":-89.0444,"dy":0.0017,"dx":0.0017,"nx":28,"ny":28,"refTime":"2024-06-10T09:00:00:Z","depth":"4","parameterNumber":2,"parameterNumberName":"U-component_of_CURRENTS"},"data":[0,0,0,0,0,0,0,0,0,0,0,0,0,0,0,0,0,0,0,0,0,0,0,0,0,0,0,0,0,0,0,0,0,0,0,0,0,0,0,0,0,0,0,0,0,0,0,0,0,0,0,0,0,0,0,0,0,0,-0.1398,-0.1398,0,-0.1415,-0.1415,-0.1415,-0.144,-0.1441,-0.1441,-0.1442,-0.1446,-0.1446,-0.1445,0,0,0,0,0,0,0,0,0,0,0,0,0,-0.1347,-0.1348,-0.1398,-0.1398,-0.1399,-0.1415,-0.1415,-0.1415,-0.144,-0.1441,-0.1442,-0.1442,-0.1446,-0.1446,-0.1445,0,0,0,0,0,0,0,0,0,0,0,0,0,-0.1365,-0.1348,-0.1398,-0.1415,-0.1417,-0.1415,-0.1415,-0.1415,-0.144,-0.1441,-0.1442,-0.1443,-0.1446,-0.1446,-0.1445,-0.142,0,0,-0.1442,-0.1442,0,0,0,0,0,0,0,0,-0.1364,-0.1366,-0.1412,-0.1414,-0.1416,-0.1429,-0.1399,-0.1417,-0.1439,-0.1428,-0.1442,-0.1443,-0.144,-0.144,-0.1437,-0.142,-0.142,-0.1442,-0.1442,-0.1442,-0.1441,0,0,0,0,0,0,0,-0.1362,-0.1365,-0.1402,-0.1413,-0.1415,-0.1409,-0.1412,-0.1402,-0.1426,-0.1429,-0.1432,-0.1438,-0.1441,-0.1438,-0.1437,-0.142,-0.1442,-0.1442,-0.1441,-0.1441,-0.1463,-0.1464,0,0,0,0,0,0,-0.1367,-0.1364,-0.1402,-0.1403,-0.1395,-0.1409,-0.1413,-0.1422,-0.1426,-0.1429,-0.1437,-0.1439,-0.1439,-0.1438,-0.1438,-0.1478,-0.1442,-0.1441,-0.144,-0.1462,-0.1463,-0.1464,0,0,0,0,0,0,-0.1365,-0.137,-0.1401,-0.1386,-0.139,-0.141,-0.1418,-0.1421,-0.1445,-0.1433,-0.1435,-0.1461,-0.144,-0.1439,-0.1457,-0.1476,-0.1441,-0.144,-0.1461,-0.1462,-0.1464,-0.1513,0,0,0,0,0,0,-0.1364,-0.1369,-0.1385,-0.1386,-0.1391,-0.1418,-0.1418,-0.1421,-0.1447,-0.1451,-0.1454,-0.1454,-0.144,-0.1459,-0.1457,-0.1474,-0.1439,-0.1459,-0.1462,-0.1463,-0.151,-0.1516,-0.1522,0,0,0,0,0,-0.1362,-0.1374,-0.1386,-0.1391,-0.1409,-0.1419,-0.1421,-0.1435,-0.1448,-0.146,-0.1469,-0.1455,-0.147,-0.1459,-0.1456,-0.1474,-0.1459,-0.1461,-0.1463,-0.1508,-0.1515,-0.1522,0,0,0,0,0,0,-0.1364,-0.1378,-0.1391,-0.1409,-0.1424,-0.1425,-0.1439,-0.145,-0.1465,-0.1475,-0.1466,-0.1466,-0.1485,-0.1476,-0.1464,-0.1487,-0.1463,-0.1465,-0.1498,-0.1504,-0.151,-0.149,-0.1439,0,0,0,0,0,-0.1371,-0.1385,-0.1398,-0.1417,-0.1426,-0.1438,-0.1448,-0.1459,-0.1469,-0.1479,-0.1483,-0.1487,-0.1487,-0.1496,-0.1489,-0.1503,-0.1479,-0.1514,-0.152,-0.1524,-0.1507,-0.1493,-0.1495,-0.1472,-0.1472,-0.1472,0,0,-0.1378,-0.1388,-0.1398,-0.1419,-0.1431,-0.1445,-0.1447,-0.1469,-0.1485,-0.1474,-0.1504,-0.1503,-0.1494,-0.1509,-0.1518,-0.1509,-0.1523,-0.1528,-0.1532,-0.1511,-0.1496,-0.1498,-0.1499,-0.1474,-0.1474,-0.1473,0,0,-0.1386,-0.1409,-0.1419,-0.1433,-0.1458,-0.1464,-0.1479,-0.1495,-0.1511,-0.1535,-0.1531,-0.1547,-0.1552,-0.1549,-0.1547,-0.158,-0.1548,-0.1585,-0.1602,-0.159,-0.1591,-0.1592,-0.1581,-0.158,-0.1595,-0.1595,-0.1595,0,-0.1397,-0.141,-0.1425,-0.1439,-0.1452,-0.1478,-0.1492,-0.1509,-0.1533,-0.1538,-0.1554,-0.1562,-0.1567,-0.157,-0.1588,-0.1591,-0.1575,-0.1578,-0.1596,-0.1596,-0.1595,-0.1584,-0.1582,-0.1597,-0.1597,-0.1597,-0.1597,0,-0.1401,-0.1424,-0.1433,-0.1459,-0.1477,-0.1494,-0.1518,-0.1542,-0.1568,-0.1574,-0.1593,-0.1603,-0.1601,-0.1618,-0.1614,-0.1619,-0.1606,-0.1599,-0.1575,-0.16,-0.1587,-0.1585,-0.1601,-0.16,-0.1599,-0.1599,0,0,-0.139,-0.1429,-0.1434,-0.1452,-0.1488,-0.1501,-0.1532,-0.1552,-0.1563,-0.1598,-0.1603,-0.1627,-0.1626,-0.1623,-0.1628,-0.163,-0.1636,-0.1619,-0.1617,-0.1602,-0.1606,-0.1486,-0.1472,-0.163,-0.163,-0.163,-0.1603,0,-0.1391,-0.142,-0.1436,-0.147,-0.1488,-0.1516,-0.1534,-0.1559,-0.1581,-0.1593,-0.161,-0.1616,-0.1631,-0.1635,-0.164,-0.1629,-0.1628,-0.1643,-0.1587,-0.1585,-0.147,-0.1464,-0.1628,-0.1601,-0.16,-0.16,-0.16,0,-0.1382,-0.1405,-0.1437,-0.1472,-0.1481,-0.1502,-0.1531,-0.155,-0.1567,-0.158,-0.1592,-0.1597,-0.161,-0.1619,-0.1611,-0.1619,-0.161,-0.1607,-0.1606,-0.1465,-0.1459,-0.1566,-0.1594,-0.1595,-0.1595,-0.1596,-0.1596,0,-0.1361,-0.1402,-0.143,-0.1444,-0.1488,-0.1504,-0.1522,-0.1544,-0.1541,-0.1569,-0.1568,-0.1581,-0.1588,-0.1582,-0.1587,-0.1595,-0.1568,-0.1578,-0.1461,-0.1454,-0.155,-0.1549,-0.1556,-0.1556,-0.1556,-0.1557,-0.1557,0,-0.1342,-0.1366,-0.1425,-0.1442,-0.1452,-0.1493,-0.1493,-0.1515,-0.1523,-0.1501,-0.1554,-0.1538,-0.1578,-0.1571,-0.1571,-0.1498,-0.1554,-0.1442,-0.1427,-0.1576,-0.1578,-0.1549,-0.1549,-0.1556,-0.1556,-0.1556,-0.1556,0,-0.1302,-0.1351,-0.138,-0.1433,-0.1443,-0.1449,-0.1457,-0.1443,-0.1481,-0.1456,-0.1462,-0.15,-0.1484,-0.1509,-0.1501,-0.1459,-0.1419,-0.1383,-0.154,-0.1538,-0.1319,-0.1322,-0.1231,-0.1226,-0.1222,-0.1219,-0.1216,0,-0.128,-0.1297,-0.1355,-0.1361,-0.1383,-0.1393,-0.1378,-0.1409,-0.1383,-0.1413,-0.1381,-0.1396,-0.1407,-0.1305,-0.1352,-0.132,-0.1312,-0.1288,-0.1294,-0.1285,-0.1281,-0.129,-0.1298,-0.121,-0.1208,-0.1207,-0.1206,0,-0.1223,-0.1256,-0.1276,-0.1285,-0.1287,-0.1261,-0.125,-0.1214,-0.1235,-0.1302,-0.125,-0.1235,-0.1213,-0.1212,-0.1196,-0.1182,-0.1298,-0.1246,-0.1254,-0.126,-0.1258,-0.126,-0.1273,-0.1192,-0.1194,-0.1196,-0.1197,0,-0.1171,-0.1162,-0.119,-0.1176,-0.1177,-0.1106,-0.1116,-0.1073,-0.1053,-0.1099,-0.1084,-0.1123,-0.1187,-0.1138,-0.1126,-0.1093,-0.1075,-0.1045,-0.1064,-0.108,-0.1042,-0.1018,-0.0843,0,0,0,0,0,-0.1107,-0.108,-0.107,-0.1037,-0.1031,-0.1018,-0.1011,-0.1023,-0.1057,-0.0981,-0.1022,-0.0998,-0.0971,-0.1006,-0.0937,-0.1045,-0.1075,-0.096,-0.105,-0.1115,-0.1131,-0.1101,0,0,0,0,0,0,-0.1065,-0.106,-0.1033,-0.0913,-0.0868,-0.0822,-0.0809,-0.0837,-0.0795,-0.0867,-0.0861,-0.0935,-0.093,-0.0997,-0.0921,-0.0926,-0.0957,-0.0998,-0.0994,-0.1106,-0.1121,-0.1134,-0.1108,0,0,0,0,0]},{"header":{"parameterUnit":"m.s-1","parameterCategory":2,"la1":30.2991,"la2":30.254,"lo1":-89.0895,"lo2":-89.0444,"dy":0.0017,"dx":0.0017,"nx":28,"ny":28,"refTime":"2024-06-10T09:00:00:Z","depth":"4","parameterNumber":3,"parameterNumberName":"V-component_of_CURRENTS"},"data":[0,0,0,0,0,0,0,0,0,0,0,0,0,0,0,0,0,0,0,0,0,0,0,0,0,0,0,0,0,0,0,0,0,0,0,0,0,0,0,0,0,0,0,0,0,0,0,0,0,0,0,0,0,0,0,0,0,0,-0.0129,-0.0128,0,-0.0073,-0.0073,-0.0072,-0.0046,-0.0045,-0.0045,-0.0045,-0.0003,-0.0002,-0.0001,0,0,0,0,0,0,0,0,0,0,0,0,0,-0.0192,-0.0191,-0.0129,-0.0128,-0.0127,-0.0073,-0.0073,-0.0072,-0.0046,-0.0045,-0.0045,-0.0045,-0.0004,-0.0003,-0.0001,0,0,0,0,0,0,0,0,0,0,0,0,0,-0.0154,-0.0191,-0.0129,-0.0107,-0.0105,-0.0074,-0.0073,-0.0072,-0.0046,-0.0045,-0.0045,-0.0045,-0.0004,-0.0003,-0.0001,0.0009,0,0,0.0004,0.0005,0,0,0,0,0,0,0,0,-0.0156,-0.0151,-0.0111,-0.0109,-0.0106,-0.0066,-0.008,-0.0045,-0.0046,-0.0068,-0.0045,-0.0045,-0.0025,-0.0022,-0.0012,0.0011,0.0012,0.0004,0.0005,0.0006,0.0006,0,0,0,0,0,0,0,-0.0159,-0.0154,-0.0107,-0.011,-0.0107,-0.0094,-0.0088,-0.0073,-0.0048,-0.0066,-0.0064,-0.0058,-0.0024,-0.0014,-0.0011,0.0013,0.0004,0.0006,0.0007,0.0007,0.0076,0.0077,0,0,0,0,0,0,-0.0166,-0.0156,-0.0109,-0.0105,-0.0131,-0.0093,-0.0087,-0.0079,-0.0048,-0.0043,-0.0058,-0.0056,-0.0016,-0.0013,-0.0009,0.0033,0.0006,0.0007,0.0008,0.0076,0.0077,0.0078,0,0,0,0,0,0,-0.0167,-0.0162,-0.0111,-0.0129,-0.0122,-0.0092,-0.0083,-0.0078,-0.0069,-0.0041,-0.0037,-0.0054,-0.0016,-0.0012,0.0014,0.0033,0.0008,0.001,0.0075,0.0076,0.0077,0.0098,0,0,0,0,0,0,-0.0169,-0.0163,-0.0164,-0.013,-0.0121,-0.0089,-0.0083,-0.0077,-0.0064,-0.0062,-0.0036,-0.0032,-0.0016,0.0011,0.0015,0.0035,0.0011,0.0074,0.0075,0.0077,0.0096,0.01,0.0103,0,0,0,0,0,-0.0172,-0.0166,-0.0164,-0.0159,-0.0122,-0.0089,-0.0083,-0.0062,-0.0064,-0.0055,-0.0035,-0.0033,0.0024,0.0013,0.0018,0.0039,0.0073,0.0075,0.0077,0.0095,0.0099,0.0103,0,0,0,0,0,0,-0.0197,-0.0162,-0.0159,-0.0146,-0.0121,-0.0084,-0.0076,-0.0066,-0.0043,-0.0044,-0.0024,-0.0018,0.0012,0.002,0.0007,0.0063,0.0049,0.0052,0.0062,0.0066,0.0069,0.0053,0.0012,0,0,0,0,0,-0.0204,-0.019,-0.0158,-0.0148,-0.0137,-0.011,-0.0097,-0.0082,-0.0057,-0.0047,-0.0027,-0.0005,0.0024,0.0039,0.006,0.0089,0.0087,0.0106,0.0109,0.0112,0.0102,0.0128,0.0132,0.0084,0.0084,0.0084,0,0,-0.0216,-0.0192,-0.0187,-0.0153,-0.0134,-0.0109,-0.0102,-0.008,-0.0059,-0.0047,-0.0016,0.0003,0.0032,0.0069,0.0083,0.0079,0.0125,0.0114,0.0117,0.0105,0.013,0.0135,0.0139,0.0085,0.0085,0.0085,0,0,-0.0211,-0.0207,-0.0186,-0.0165,-0.0132,-0.0114,-0.011,-0.0075,-0.0059,-0.0029,-0.001,0.0022,0.0057,0.0092,0.0112,0.0144,0.0138,0.0149,0.0159,0.0184,0.0188,0.0192,0.0193,0.0196,0.0156,0.0156,0.0156,0,-0.0226,-0.0202,-0.0177,-0.0148,-0.0145,-0.0117,-0.0105,-0.0072,-0.0033,-0.003,-0.0019,0.0036,0.0071,0.0117,0.0141,0.0152,0.0151,0.0143,0.0188,0.0191,0.0194,0.0195,0.0198,0.0157,0.0157,0.0157,0.0157,0,-0.0194,-0.0187,-0.0175,-0.0135,-0.0123,-0.0112,-0.0073,-0.0057,-0.0045,-0.0019,0.0014,0.0066,0.009,0.0123,0.0148,0.0191,0.0177,0.0185,0.0175,0.0201,0.0199,0.0202,0.0159,0.0159,0.0158,0.0158,0,0,-0.0207,-0.0164,-0.0164,-0.0177,-0.0129,-0.0131,-0.0089,-0.0066,-0.007,-0.0008,-0.001,0.0082,0.0091,0.0115,0.0153,0.0197,0.0237,0.0203,0.0204,0.0199,0.027,0.0266,0.0269,0.0251,0.0252,0.0252,0.0259,0,-0.0201,-0.0182,-0.015,-0.016,-0.0166,-0.0142,-0.0124,-0.0098,-0.0071,-0.0058,0.0011,0.003,0.0096,0.0099,0.016,0.021,0.0246,0.0233,0.025,0.025,0.024,0.0273,0.0255,0.0261,0.0262,0.0263,0.0263,0,-0.0182,-0.0187,-0.0193,-0.0226,-0.0227,-0.0221,-0.0241,-0.0213,-0.0162,-0.0145,-0.0093,-0.0052,0.003,0.007,0.0182,0.0166,0.0217,0.0263,0.0265,0.0252,0.0252,0.0233,0.0268,0.0268,0.0268,0.0267,0.0267,0,-0.024,-0.0231,-0.026,-0.0261,-0.0264,-0.0281,-0.0283,-0.0249,-0.0249,-0.02,-0.02,-0.0108,-0.007,0.0021,0.0145,0.0152,0.025,0.0266,0.0306,0.0305,0.0295,0.0291,0.0329,0.0329,0.0329,0.0329,0.0329,0,-0.0263,-0.0293,-0.0299,-0.0321,-0.0385,-0.0357,-0.0399,-0.0382,-0.0354,-0.0353,-0.0254,-0.0229,-0.0079,0.0005,0.0109,0.0221,0.0223,0.0306,0.0313,0.0303,0.0301,0.0297,0.0293,0.0329,0.0329,0.0329,0.0329,0,-0.0315,-0.0307,-0.0359,-0.0392,-0.0411,-0.0458,-0.0482,-0.05,-0.0459,-0.0452,-0.0441,-0.0324,-0.0195,-0.0053,0.0092,0.0168,0.0272,0.0305,0.0267,0.0271,0.0311,0.0309,0.0338,0.0338,0.0338,0.0338,0.0338,0,-0.0335,-0.036,-0.0428,-0.0474,-0.0492,-0.0545,-0.0577,-0.0559,-0.0555,-0.05,-0.0493,-0.038,-0.0281,-0.0085,0.0071,0.0245,0.028,0.03,0.0334,0.0312,0.0316,0.0313,0.031,0.0338,0.0338,0.0338,0.0338,0,-0.0389,-0.041,-0.0459,-0.0549,-0.0605,-0.0656,-0.0683,-0.0695,-0.065,-0.0625,-0.0536,-0.0418,-0.0272,-0.0087,0.0049,0.018,0.0271,0.0301,0.0302,0.0335,0.0312,0.0315,0.0313,0.0339,0.0338,0.0338,0.0338,0,-0.0433,-0.0484,-0.0544,-0.0622,-0.069,-0.073,-0.0746,-0.0723,-0.0715,-0.063,-0.0604,-0.0431,-0.0325,-0.0121,0.0007,0.0136,0.0174,0.0191,0.0198,0.02,0.0174,0.0126,0.0101,0,0,0,0,0,-0.0472,-0.053,-0.061,-0.0691,-0.0749,-0.0778,-0.0796,-0.0784,-0.0743,-0.0692,-0.0643,-0.0498,-0.0281,-0.0175,-0.0044,0.0008,0.0188,0.016,0.0208,0.0339,0.0339,0.0335,0,0,0,0,0,0,-0.0505,-0.0584,-0.062,-0.0713,-0.0767,-0.0823,-0.083,-0.0806,-0.0752,-0.0695,-0.0565,-0.0496,-0.0266,-0.0353,-0.005,-0.0008,0.0031,0.0274,0.0276,0.0339,0.0339,0.0339,0.0335,0,0,0,0,0]}]]